Location: Newark
(25.6108°S, 54.5803°W)
Time: 21:08:51
(UTC+00:00)

Courier 1B - Pass Details

Date: 03 November 2020
Orbit: 962 x 1209 km, 28.3° (Epoch: 24 November)

Event Time Altitude Azimuth Distance (km) Brightness Sun altitude
Rises 22:35:17 0° 301° (WNW) 3,726 11.1 -9.1°
Reaches altitude 10° 22:37:56 10° 304° (NW) 2,809 10.4 -9.7°
Maximum altitude 22:44:40 59° 22° (NNE) 1,225 7.8 -11.1°
Drops below altitude 10° 22:51:53 10° 99° (E) 3,001 9.6 -12.6°
Enters shadow 22:52:04 - 100° (E) 3,065 9.6 -12.6°
Sets 22:54:48 0° 103° (ESE) 3,999 - -13.2°
